Flag for Namibia Weather past 2 weeks in Swakopmund, Namibia

Now
50 °F

Cool.


Feels Like: 47 °F
Forecast: 61 / 74 °F
Wind: 7 mph from Northeast

Location: Walvis Bay

Current Time: Oct 22, 2014 at 3:49:05 AM

Latest Report: Oct 22, 2014 at 3:00 AM


Visibility: N/A

Pressure: 30.01 "Hg

Humidity: 94%

Dew point: 48 °F

Location of SwakopmundLocation

Historic Weather in Swakopmund — Graph

°F

Swakopmund temperature yesterday

Maximum temperature yesterday: 68 °F (at 12:00 PM)
Minimum temperature yesterday: 50 °F (at 3:00 AM)
Average temperature yesterday: 58 °F

Past Weeks' High & Low Weather Summary

 TemperatureHumidityPressure
High72 °F (Oct 7, 1:00 PM)94% (Oct 9, 8:00 AM)32.01 "Hg (Oct 9, 8:00 AM)
Low45 °F (Oct 10, 4:00 AM)40% (Oct 9, 4:00 PM)29.92 "Hg (Oct 17, 3:00 PM)
Average58 °F73%30.03 "Hg
* Reported Oct 7 2:00 AM — Oct 22 2:00 AM, Swakopmund, Weather by CustomWeather, © 2014

Note: Actual official high and low records may vary slightly from our data, if they occured in-between our weather recording intervals... More about our weather records

Advertising

Swakopmund weather history for previous 24 hours

 ConditionsComfort  
Time TempWeatherWind HumidityBarometerVisibility
2:00 AM
Oct 22
50 °FCool.5 mph94%30.01 "HgN/A
1:00 AM52 °FCool.3 mph88%30.04 "HgN/A
12:00 AM54 °FCool.8 mph82%30.04 "HgN/A
11:00 PM
Oct 21
54 °FCool.3 mph82%30.04 "HgN/A
10:00 PM55 °FCool.7 mph82%30.04 "HgN/A
9:00 PM55 °FCool.8 mph82%30.04 "HgN/A
8:00 PM57 °FCool.10 mph77%30.04 "HgN/A
7:00 PM61 °FCool.16 mph68%30.01 "HgN/A
6:00 PM63 °FSunny.16 mph64%29.98 "Hg10 mi
5:00 PM66 °FSunny.16 mph56%29.98 "Hg10 mi
4:00 PM66 °FSunny.18 mph56%29.98 "Hg10 mi
3:00 PM68 °FSunny.16 mph53%30.01 "Hg10 mi
2:00 PM68 °FSunny.14 mph56%30.01 "Hg10 mi
1:00 PM68 °FSunny.12 mph53%30.04 "Hg10 mi
12:00 PM68 °FSunny.7 mph56%30.04 "Hg10 mi
11:00 AM61 °FSunny.5 mph72%30.07 "Hg10 mi
10:00 AM57 °FCool.3 mph82%30.07 "HgN/A
9:00 AM55 °FLow clouds.2 mph88%30.07 "HgN/A
8:00 AM54 °FLow clouds.5 mph88%30.07 "HgN/A
7:00 AM54 °FLow clouds.3 mph88%30.07 "HgN/A
6:00 AM54 °FLow clouds.5 mph88%30.04 "HgN/A
5:00 AM54 °FCool.3 mph88%30.04 "HgN/A
4:00 AM52 °FCool.2 mph88%30.04 "HgN/A
3:00 AM50 °FCool.No wind94%30.04 "HgN/A
Weather by CustomWeather, © 2014

See weather overviewHow to use our weather pages